Regional Weather Roundup
Issued by NWS

Home | Current Version | Previous Version | Text Only | Print | Product List | Glossary On
Versions: 1 2 3 4 5 6 7 8 9 10 11 12 13 14 15 16 17 18 19 20 21 22 23 24 25 26 27 28
000
ASUS46 KPQR 260110
RWROR

OREGON REGIONAL WEATHER ROUNDUP
NATIONAL WEATHER SERVICE PORTLAND OR
600 PM PDT WED APR 25 2018

NOTE: "FAIR" INDICATES FEW OR NO CLOUDS BELOW 12,000 FEET WITH
NO SIGNIFICANT WEATHER AND/OR OBSTRUCTIONS TO VISIBILITY.

ORZ001>013-260200-
NORTHWEST OREGON


CITY           SKY/WX    TMP DP  RH WIND       PRES   REMARKS
ASTORIA        SUNNY     56  51  84 SW6       30.01F
TILLAMOOK      SUNNY     55  50  82 W7        30.04S
NEWPORT        CLOUDY    50  48  93 CALM      30.08
PORTLAND       MOSUNNY   84  35  17 W8        29.96F
VANCOUVER WA   SUNNY     83  34  17 W6        29.95F
SCAPPOOSE      SUNNY     81  45  28 E6        29.96F
HILLSBORO      SUNNY     84  42  22 NE5       29.96F
AURORA         SUNNY     84  41  21 NW6       29.97F
MCMINNVILLE    SUNNY     82  42  24 N6        29.95F
SALEM          SUNNY     82  45  27 N9        29.95F
CORVALLIS      SUNNY     81  48  31 NE9       29.96F
EUGENE         SUNNY     77  58  51 N8        29.96F
$$

ORZ021-028-260200-
SOUTHWEST OREGON


CITY           SKY/WX    TMP DP  RH WIND       PRES   REMARKS
NORTH BEND     CLOUDY    53  49  86 W7        30.08F
BROOKINGS      CLOUDY    50  48  93 SW3       30.06F FOG
ROSEBURG       SUNNY     86  47  25 NW12G17   29.92S
SEXTON SUMMIT  SUNNY     75  29  18 CALM      30.07F
GRANTS PASS    FAIR      88  30  12 CALM      29.93F
MEDFORD        SUNNY     89  33  13 N6        29.90F
$$

ORZ014>016-041-260200-
COLUMBIA GORGE


CITY           SKY/WX    TMP DP  RH WIND       PRES   REMARKS
TROUTDALE      SUNNY     83  41  22 W3        29.96F
HOOD RIVER     SUNNY     79  41  25 E6        30.03S
THE DALLES     SUNNY     82  40  22 E10       30.01F
$$

ORZ029>031-041-044-049-050-061>064-502-503-505>511-260200-
EASTERN OREGON


CITY           SKY/WX    TMP DP  RH WIND       PRES   REMARKS
MADRAS         SUNNY     77  37  24 N12       30.07F
REDMOND        SUNNY     81  31  16 N9        30.05F
BEND           SUNNY     81  28  15 N9G16     30.06F
PRINEVILLE     SUNNY     79  32  18 N10       30.07S
KLAMATH FALLS  SUNNY     78  21  12 CALM      30.07F
LAKEVIEW       SUNNY     74  28  18 SE6       30.13F
HERMISTON      PTSUNNY   78  41  26 E7        30.05F
PENDLETON      MOSUNNY   72  44  36 NE9       30.08S
JOHN DAY       SUNNY     77  31  18 W7        30.09F
MEACHAM        MOSUNNY   65  37  35 VRB3      30.15F
LA GRANDE      PTSUNNY   74  39  28 N10       30.09S
BAKER CITY     MOSUNNY   77  31  18 N6        30.11S
BURNS          SUNNY     74  27  17 S10       30.10F
ROME             N/A     79  18  10 CALM      30.09S
ONTARIO        SUNNY     77  33  20 N5        30.07F
$$




USA.gov is the U.S. government's official web portal to all federal, state and local government web resources and services.